Starlink 11433

operational
NORAD ID: 62008 Int'l Des: 2024-213 Owner: SPXS Country: US Constellation: starlink
LEOCIRCULAR

Starlink 11433について

説明を読み込み中...

リアルタイム位置

3D地球を読み込み中...

次回通過

高度履歴

Altitude vs Time

uPlot chart will show altitude changes over time

軌道要素

1 62008U 24213A 25353.76011231 .00130550 00000-0 10643-2 0 9997
2 62008 53.1579 75.1165 0001408 53.3341 306.7806 15.69737710 62368
Epoch: Dec 19, 2025 • Age: 7 hours

現在のステータス

高度 367.5 km
速度 7.69 km/s
衛星直下点 -24.90°S, 166.25°E
打ち上げ日 Nov 18, 2024
運用期間 1 years
タイプ internet

技術仕様

分類 Payload
質量 960.00 kg
乾燥質量 910.00 kg
総質量 960.00 kg
長さ 0.30 m
直径 4.10 m
スパン 29.00 m
形状 Box + pan
製造者 SPXS
バスタイプ Starlink V2MD
フェーズステータス In Orbit
所有者/国 SPXS/US

大規模コンステレーション

Loading constellations...